RH
28 30 30 29 31 35 40 42 42 43 43 47 47 45 45 41 38 35 32 30 29 28 32 32 31 34 35 34 33 34 38 38 35 38 40 38 33 29 33 31 31 34 33
28 30 30 28 28 32 38 42 47 48 44 43 44 42 41 38 38 37 32 29 27 27 28 31 30 30 33 32 33 35 37 35 33 38 42 43 34 31 32 32 32 32 35
28 30 31 32 33 36 40 42 41 43 43 43 42 41 40 40 36 34 33 30 25 23 24 25 24 26 30 33 34 33 37 40 35 34 32 42 43 41 37 34 31 29 29
27 30 32 35 38 43 44 40 40 39 38 37 37 36 37 37 34 32 30 27 25 22 20 20 23 23 25 28 31 24 33 38 39 35 24 30 32 45 45 32 34 28 24
30 33 36 40 42 46 46 42 39 38 37 34 33 33 34 33 30 27 26 22 21 21 20 19 22 22 24 26 28 31 31 35 32 33 36 32 36 33 37 39 34 28 26
32 34 38 41 46 48 46 44 37 36 34 34 32 33 34 30 29 26 23 20 18 19 20 20 21 22 24 26 29 30 34 35 33 32 32 30 33 35 33 34 35 36 36
34 38 41 42 46 48 45 38 36 36 33 32 31 30 31 28 26 22 20 18 16 18 20 21 20 20 24 25 26 29 31 30 33 35 30 28 31 30 30 34 40 45 43
34 38 39 42 46 45 40 37 35 34 30 29 27 25 25 23 20 19 18 16 16 17 18 20 19 18 18 20 22 26 28 27 31 36 34 31 32 30 31 38 46 53 46
36 37 39 41 44 42 39 38 35 33 29 26 23 21 19 20 20 18 17 17 16 14 16 18 18 18 18 19 21 21 23 24 27 31 34 32 30 33 34 38 42 46 52
35 37 39 40 40 39 39 38 34 32 28 23 21 19 16 16 16 16 16 17 15 16 18 17 17 17 17 17 20 22 22 23 24 25 29 30 30 31 34 37 37 39 45
36 37 38 40 40 40 40 37 34 30 26 22 19 18 16 15 14 15 15 15 15 16 16 16 17 17 17 17 19 20 22 22 25 27 29 32 31 33 33 37 39 42 43
35 35 37 42 41 40 38 36 34 29 25 20 17 17 17 16 16 16 16 14 15 16 16 16 17 17 18 19 20 21 21 22 26 28 31 32 26 39 39 39 42 44 43
35 35 38 43 40 39 37 34 32 28 22 19 17 17 18 18 18 17 17 16 17 17 17 18 19 19 22 22 21 20 20 26 29 31 34 35 36 42 42 43 45 48 44
37 37 41 42 38 36 35 32 30 25 22 19 18 20 20 20 19 20 20 19 18 20 20 21 21 24 22 24 23 23 30 33 34 36 37 36 38 40 47 47 52 50 62
38 39 43 41 38 36 33 30 28 24 20 19 19 23 22 21 21 22 22 21 22 22 22 22 25 25 25 21 29 35 39 43 42 40 36 36 45 48 46 40 53 60 68
36 39 42 41 39 36 34 32 29 25 20 19 21 22 21 22 22 24 23 23 24 24 23 25 29 36 23 36 41 43 45 46 45 43 38 35 44 41 48 54 55 55 63
36 41 43 43 40 37 35 32 26 22 20 20 20 21 22 22 23 22 22 24 24 24 26 25 26 26 25 38 43 49 47 49 44 40 38 37 31 45 51 57 57 65 66
40 43 44 45 41 36 34 29 22 22 22 21 20 20 21 21 21 21 22 22 22 25 26 26 25 26 25 39 44 51 48 44 42 38 39 41 46 53 54 53 85 92 70
38 44 44 44 41 38 32 26 24 23 21 20 20 20 20 21 21 22 22 23 25 27 27 25 26 26 25 40 45 51 47 45 43 40 42 47 51 54 69 74 81 52 50
49 51 48 43 41 35 28 27 25 22 20 21 21 21 21 22 22 22 24 26 27 26 24 26 24 30 26 41 49 48 46 49 48 49 54 57 50 64 70 59 51 66 65
51 47 45 43 37 29 26 27 23 20 22 23 22 21 21 21 21 24 27 31 29 28 26 25 24 25 31 36 48 52 47 50 56 67 54 48 60 69 59 54 50 62 58
53 45 43 37 28 26 27 25 23 22 23 23 22 22 21 20 24 36 39 35 30 28 26 26 28 32 32 43 47 52 55 55 58 55 49 61 77 55 54 53 57 59 59
48 42 39 33 30 26 25 24 23 22 22 23 22 21 21 22 26 36 37 34 28 28 29 30 36 41 41 42 51 55 57 59 52 51 64 75 55 53 52 56 58 57 62
47 42 39 36 33 27 26 22 23 23 23 23 22 21 23 27 27 28 30 31 29 33 36 42 50 53 53 52 50 51 59 57 61 75 69 54 52 53 55 55 55 59 62
51 46 44 40 35 30 25 23 24 24 25 22 21 23 25 28 31 29 29 29 31 38 47 53 56 62 62 56 58 58 52 58 70 60 53 51 53 60 59 59 60 62 64
53 50 46 41 35 28 24 24 25 26 25 24 25 28 30 32 31 30 32 38 42 45 47 51 52 49 56 59 60 59 61 69 59 54 56 62 68 70 66 65 66 68 75
Wind_Speed
7 7 8 9 10 11 12 12 11 11 9 8 8 8 8 8 8 8 10 10 10 10 10 7 8 8 8 8 10 9 10 8 9 8 8 10 9 13 9 11 12 13 13
11 10 10 10 11 12 13 13 12 11 10 8 8 8 8 8 8 7 8 9 10 11 9 10 8 9 7 9 9 9 8 7 9 9 10 7 8 8 12 11 10 15 10
14 13 12 12 11 12 12 12 12 12 11 12 9 8 8 6 7 6 6 8 10 10 10 9 8 8 7 6 8 8 9 7 7 10 8 7 7 13 9 12 9 15 13
14 13 13 12 12 11 11 12 12 12 10 10 9 11 8 7 6 5 5 6 8 9 10 9 9 8 6 7 7 7 8 8 8 7 8 10 12 12 12 4 11 10 13
14 14 13 12 12 10 10 11 12 12 11 10 10 8 9 7 5 4 5 6 6 7 9 8 8 7 6 7 8 8 9 7 8 8 8 9 9 11 13 16 10 10 10
15 14 13 12 11 10 10 9 11 12 11 10 11 10 9 7 6 6 5 4 4 5 8 8 7 7 7 8 7 8 9 9 8 8 9 9 10 10 11 14 15 15 11
16 15 14 12 11 11 11 10 10 11 10 10 10 10 9 8 7 6 5 6 5 5 7 8 8 7 7 8 8 8 9 9 8 10 8 9 10 10 10 13 14 15 12
15 15 14 12 12 11 10 10 10 10 9 9 9 8 7 5 5 6 5 5 5 6 8 8 8 9 9 9 8 7 7 9 8 12 10 10 9 10 10 12 12 16 15
16 16 14 12 11 11 10 10 10 9 8 7 7 7 7 7 5 6 5 5 5 5 7 8 8 9 10 10 10 8 10 10 10 10 11 10 9 10 10 11 10 12 17
16 15 13 12 11 11 10 9 9 8 7 6 6 5 6 6 5 5 6 5 5 6 7 8 9 10 11 11 11 10 10 12 9 10 12 12 10 11 10 11 10 10 13
16 15 13 12 11 10 9 9 8 8 6 5 5 5 5 5 4 5 5 6 6 6 7 8 10 11 12 13 12 12 13 13 13 13 13 14 15 11 10 11 11 12 11
16 15 14 13 11 11 9 9 8 7 6 5 4 4 4 4 5 5 5 6 7 7 8 9 10 12 13 13 14 14 13 14 15 15 15 15 11 15 12 11 14 12 14
16 15 14 12 12 11 9 9 7 7 6 4 4 3 4 4 5 6 6 7 7 8 9 10 11 13 13 13 14 14 14 15 15 16 15 16 15 14 12 12 13 13 13
16 14 13 12 11 10 9 8 8 7 6 4 3 3 4 4 5 5 6 7 8 9 10 11 12 12 13 13 14 13 15 15 15 16 16 15 14 15 15 14 14 14 14
16 14 13 12 11 10 9 8 7 7 5 4 3 4 3 4 5 6 7 8 8 9 11 12 12 13 12 10 12 13 15 16 17 16 15 14 16 24 22 13 13 15 15
14 13 13 12 11 11 9 8 8 6 5 4 3 1 3 4 5 6 7 9 10 11 12 12 13 12 10 19 21 18 14 16 17 16 14 14 19 17 24 25 30 26 17
12 12 12 11 10 10 9 9 8 7 5 3 1 2 3 4 6 7 8 10 11 12 12 13 13 14 14 21 22 23 13 15 15 16 14 14 12 18 15 22 28 20 24
8 8 8 9 9 9 9 8 8 6 4 3 1 3 4 5 7 8 9 11 11 12 12 13 13 13 12 21 22 21 14 14 15 15 15 16 16 17 21 18 16 15 17
6 7 8 9 10 10 9 9 7 5 4 2 2 3 4 6 7 9 11 11 11 11 11 12 14 14 13 21 20 18 14 14 15 14 15 17 18 24 29 18 18 20 19
8 9 10 10 10 10 9 8 6 4 3 1 2 4 4 6 8 10 11 11 11 12 11 13 13 17 13 18 19 18 10 14 12 14 15 23 23 28 30 22 19 18 16
10 10 10 9 9 9 8 6 5 4 3 1 3 4 5 7 9 10 11 11 12 12 12 13 12 13 13 13 20 21 12 11 12 13 13 12 27 29 33 31 16 18 22
10 9 9 9 8 7 6 6 4 4 2 2 4 6 7 7 7 9 9 11 12 12 12 12 11 9 11 16 18 22 23 24 15 15 13 15 28 32 31 22 29 31 25
8 8 8 9 7 6 5 5 4 2 2 4 5 7 8 8 8 9 10 10 10 10 11 10 9 9 9 10 20 23 26 26 18 13 23 28 31 28 18 26 29 25 11
8 7 9 9 8 6 5 4 4 2 2 5 6 7 8 10 10 8 8 8 9 9 10 10 10 10 10 10 10 12 12 19 16 19 14 21 23 22 23 17 14 11 11
7 7 7 7 8 7 5 4 2 1 4 5 6 7 7 9 10 9 8 8 10 10 10 10 10 11 11 11 23 22 15 15 18 23 11 11 11 12 12 11 12 11 11
7 6 6 6 7 5 4 3 2 2 4 6 6 7 7 7 8 8 9 13 17 18 18 20 16 10 20 26 27 29 30 30 30 12 11 11 11 12 13 13 13 12 15
Wind_Direction
124 107 102 100 96 87 86 88 99 112 116 116 107 105 103 97 84 71 61 52 41 35 30 20 16 9 2 358 352 348 341 334 344 317 322 302 294 323 351 337 325 317 318
144 126 117 103 90 91 89 85 84 86 87 93 90 97 95 88 86 78 63 55 45 36 30 18 9 7 352 1 357 356 345 341 340 338 313 334 310 353 330 309 313 302 321
152 141 127 114 103 94 93 93 90 96 98 105 108 105 108 101 85 68 65 45 45 33 26 19 7 6 359 4 356 357 348 338 337 348 325 328 322 315 308 313 301 334 315
154 140 134 121 108 101 96 96 93 93 90 87 86 85 91 91 77 72 55 59 45 38 20 14 9 8 359 5 351 355 341 340 333 331 336 311 311 313 313 302 306 308 320
154 149 136 125 113 109 103 101 97 93 87 87 94 98 100 97 81 71 56 50 45 36 23 9 8 7 5 0 349 344 341 334 330 328 321 314 311 316 308 309 309 297 299
158 147 138 132 122 119 111 106 103 95 90 88 86 87 87 81 78 60 42 25 34 25 29 4 5 3 358 351 341 336 328 321 319 318 312 318 318 311 313 302 306 304 304
160 156 153 145 139 131 121 114 106 99 93 90 88 85 81 76 68 49 38 21 13 17 15 1 354 351 345 338 332 328 315 319 317 310 313 306 303 307 301 300 303 302 306
166 166 160 150 141 136 127 122 114 107 99 93 87 78 70 64 58 46 27 19 12 8 357 351 342 338 333 330 326 316 310 309 314 302 306 300 298 300 303 299 306 303 301
170 170 160 155 146 141 136 127 122 112 103 96 89 77 71 62 54 41 27 11 7 351 349 338 332 329 325 324 321 314 310 313 308 307 301 298 302 297 302 296 295 297 302
171 167 166 158 152 141 134 134 128 120 111 98 86 78 68 55 42 35 18 2 351 351 337 333 329 324 323 322 319 311 311 308 304 302 304 301 299 301 295 293 297 297 292
174 171 169 158 150 147 148 138 133 133 123 109 99 83 65 46 34 22 359 353 338 344 331 331 325 323 320 317 316 312 307 307 305 303 301 301 302 299 304 302 298 291 293
177 172 167 160 163 162 154 152 147 142 127 116 104 83 63 32 17 4 351 342 338 334 331 324 320 315 312 314 311 309 305 312 307 305 304 301 305 303 303 299 301 304 300
174 173 169 173 175 168 165 158 157 145 138 132 112 85 51 21 359 353 342 338 331 327 322 318 312 310 311 309 310 304 317 311 307 306 305 306 304 306 303 306 307 294 293
176 176 176 180 179 172 168 164 157 153 142 130 107 65 34 1 348 337 330 328 325 320 316 310 309 306 306 311 304 323 313 309 308 307 305 301 304 304 312 298 295 298 305
181 182 181 183 178 174 168 165 157 156 146 135 95 50 0 342 328 326 325 323 320 314 309 308 303 304 309 302 326 314 313 310 308 304 300 302 304 303 297 303 305 304 294
181 186 187 185 179 176 172 164 161 151 149 125 91 24 329 326 328 327 322 320 317 310 307 300 301 302 303 314 315 317 311 311 305 299 305 305 302 303 310 313 305 301 316
184 186 187 185 175 171 170 170 158 144 139 126 86 338 325 323 329 324 321 317 310 306 303 304 308 309 312 314 317 318 314 302 300 303 309 306 308 315 313 299 300 315 306
153 159 165 162 153 151 159 143 141 143 135 130 339 323 319 328 327 321 314 312 310 308 309 308 311 311 308 315 318 317 306 304 301 308 310 310 314 308 303 310 321 309 300
116 131 138 143 142 146 144 147 144 134 139 94 338 319 329 328 320 315 315 310 310 309 309 310 311 308 311 315 317 317 307 307 308 314 315 309 305 303 321 323 313 311 310
102 116 122 128 143 143 148 150 141 134 115 90 327 316 326 313 311 312 311 312 312 309 311 307 307 309 311 315 313 318 308 306 308 308 302 305 308 324 324 318 317 312 312
112 117 129 136 132 139 149 141 124 130 108 289 299 314 312 310 309 309 311 315 313 310 306 307 312 312 309 309 319 314 310 309 314 309 309 312 320 320 321 322 319 307 317
123 125 128 125 133 139 141 136 142 120 165 307 320 316 311 310 309 310 312 314 309 306 310 312 309 307 315 320 313 316 320 318 318 313 314 316 318 322 322 326 316 320 326
131 138 136 133 137 141 142 142 128 144 9 331 311 307 310 310 320 318 311 310 311 312 312 310 313 316 324 313 316 323 319 322 319 316 316 319 320 321 329 320 323 326 313
143 146 145 151 150 137 139 126 111 64 335 303 305 310 314 320 315 311 307 307 309 309 310 315 314 317 313 315 318 315 316 318 320 315 311 319 322 327 319 320 317 312 311
147 158 163 161 146 157 148 117 104 330 297 306 311 317 319 319 311 307 308 305 300 306 305 304 309 312 312 314 316 321 323 320 318 324 320 322 325 318 319 317 314 314 312
151 160 151 148 148 154 143 143 185 259 297 311 319 321 315 311 306 309 306 301 304 308 307 303 300 303 306 311 317 322 321 323 326 328 327 321 317 319 319 318 317 315 318